| time (UTC) | temp F | wind direction | speed knots | gust knots | rain 1hr in | rain 24hr in | rain mn in | humidity % | barometer mb |
| 20260506091957 | 50 | 105 | 8.7 | 9.6 | 0.00 | 0.00 | 0.00 | 89 | 1015.9 |
| 20260506091604 | 0 | 0.0 | 0.0 | 0.00 | 0.00 | 0.00 | |||
| 20260506091457 | 50 | 117 | 7.8 | 9.6 | 0.00 | 0.00 | 0.00 | 89 | 1015.8 |
| 20260506091104 | 0 | 0.0 | 0.0 | 0.00 | 0.00 | 0.00 | |||
| 20260506090959 | 50 | 111 | 7.8 | 9.6 | 0.00 | 0.00 | 0.00 | 88 | 1015.8 |
| 20260506090457 | 50 | 118 | 7.0 | 9.6 | 0.00 | 0.00 | 0.00 | 88 | 1015.7 |
| 20260506090103 | 0 | 0.0 | 0.0 | 0.00 | 0.00 | 0.00 | |||
| 20260506085957 | 50 | 105 | 10.4 | 13.0 | 0.00 | 0.00 | 0.00 | 88 | 1015.8 |
| 20260506085604 | 0 | 0.0 | 0.0 | 0.00 | 0.00 | 0.00 | |||
| 20260506085457 | 50 | 107 | 8.7 | 11.3 | 0.00 | 0.00 | 0.00 | 89 | 1015.7 |
| 20260506085104 | 0 | 0.0 | 0.0 | 0.00 | 0.00 | 0.00 | |||
| 20260506084957 | 50 | 109 | 8.7 | 11.3 | 0.00 | 0.00 | 0.00 | 89 | 1015.7 |
| 20260506084604 | 0 | 0.0 | 0.0 | 0.00 | 0.00 | 0.00 | |||
| 20260506084458 | 50 | 110 | 8.7 | 10.4 | 0.00 | 0.00 | 0.00 | 89 | 1015.7 |
| 20260506084104 | 0 | 0.0 | 0.0 | 0.00 | 0.00 | 0.00 | |||
| 20260506083957 | 51 | 106 | 8.7 | 11.3 | 0.00 | 0.00 | 0.00 | 88 | 1015.7 |
| 20260506083604 | 0 | 0.0 | 0.0 | 0.00 | 0.00 | 0.00 | |||
| 20260506083457 | 51 | 110 | 7.8 | 11.3 | 0.00 | 0.00 | 0.00 | 89 | 1015.8 |
| 20260506082957 | 51 | 105 | 10.4 | 13.0 | 0.00 | 0.00 | 0.00 | 89 | 1015.7 |
| 20260506082605 | 0 | 0.0 | 0.0 | 0.00 | 0.00 | 0.00 | |||
| 20260506082457 | 51 | 116 | 7.8 | 9.6 | 0.00 | 0.00 | 0.00 | 89 | 1015.7 |
| 20260506082103 | 0 | 0.0 | 0.0 | 0.00 | 0.00 | 0.00 | |||
| 20260506081957 | 51 | 113 | 7.8 | 9.6 | 0.00 | 0.00 | 0.00 | 89 | 1015.7 |
| 20260506081600 | 0 | 0.0 | 0.0 | 0.00 | 0.00 | 0.00 | |||
| 20260506081457 | 51 | 107 | 8.7 | 13.9 | 0.00 | 0.00 | 0.00 | 89 | 1015.8 |
| 20260506080957 | 51 | 98 | 8.7 | 11.3 | 0.00 | 0.00 | 0.00 | 89 | 1015.7 |
| 20260506080600 | 0 | 0.0 | 0.0 | 0.00 | 0.00 | 0.00 | |||
| 20260506080457 | 51 | 110 | 7.8 | 10.4 | 0.00 | 0.00 | 0.00 | 89 | 1015.8 |
| 20260506073457 | 51 | 122 | 6.1 | 8.7 | 0.00 | 0.00 | 0.00 | 88 | 1015.4 |
| 20260506073101 | 0 | 0.0 | 0.0 | 0.00 | 0.00 | 0.00 | |||
| 20260506072957 | 52 | 116 | 7.8 | 8.7 | 0.00 | 0.00 | 0.00 | 88 | 1015.4 |
| 20260506072559 | 0 | 0.0 | 0.0 | 0.00 | 0.00 | 0.00 | |||
| 20260506072457 | 52 | 111 | 7.8 | 9.6 | 0.00 | 0.00 | 0.00 | 88 | 1015.4 |
| 20260506072100 | 0 | 0.0 | 0.0 | 0.00 | 0.00 | 0.00 | |||
| 20260506071957 | 52 | 117 | 7.8 | 11.3 | 0.00 | 0.00 | 0.00 | 88 | 1015.4 |
| 20260506071558 | 0 | 0.0 | 0.0 | 0.00 | 0.00 | 0.00 | |||
| 20260506071457 | 52 | 119 | 7.0 | 8.7 | 0.00 | 0.00 | 0.00 | 88 | 1015.4 |
| 20260506071058 | 0 | 0.0 | 0.0 | 0.00 | 0.00 | 0.00 | |||
| 20260506070957 | 52 | 123 | 6.1 | 7.8 | 0.00 | 0.00 | 0.00 | 88 | 1015.4 |
| 20260506070559 | 0 | 0.0 | 0.0 | 0.00 | 0.00 | 0.00 | |||
| 20260506070457 | 52 | 117 | 6.1 | 7.8 | 0.00 | 0.00 | 0.00 | 88 | 1015.4 |
| 20260506062459 | 53 | 113 | 7.8 | 9.6 | 0.00 | 0.00 | 0.00 | 86 | 1015.1 |
| 20260506062059 | 0 | 0.0 | 0.0 | 0.00 | 0.00 | 0.00 | |||
| 20260506061958 | 53 | 116 | 7.8 | 9.6 | 0.00 | 0.00 | 0.00 | 86 | 1014.9 |
| 20260506061556 | 0 | 0.0 | 0.0 | 0.00 | 0.00 | 0.00 | |||
| 20260506061457 | 53 | 113 | 7.8 | 8.7 | 0.00 | 0.00 | 0.00 | 86 | 1015.0 |
| 20260506060957 | 53 | 111 | 7.8 | 8.7 | 0.00 | 0.00 | 0.00 | 86 | 1015.1 |
| 20260506060557 | 0 | 0.0 | 0.0 | 0.00 | 0.00 | 0.00 | |||
| 20260506060457 | 53 | 109 | 7.8 | 9.6 | 0.00 | 0.00 | 0.00 | 86 | 1015.0 |
| 20260506051054 | 0 | 0.0 | 0.0 | 0.00 | 0.00 | 0.00 | |||
| 20260506050957 | 54 | 110 | 7.8 | 8.7 | 0.00 | 0.00 | 0.00 | 85 | 1015.0 |
| 20260506050459 | 54 | 112 | 7.0 | 8.7 | 0.00 | 0.00 | 0.00 | 85 | 1015.0 |
| 20260506045054 | 0 | 0.0 | 0.0 | 0.00 | 0.00 | 0.00 | |||
| 20260506044957 | 54 | 113 | 7.0 | 8.7 | 0.00 | 0.00 | 0.00 | 84 | 1014.9 |
| 20260506044555 | 0 | 0.0 | 0.0 | 0.00 | 0.00 | 0.00 | |||
| 20260506044457 | 54 | 110 | 7.0 | 8.7 | 0.00 | 0.00 | 0.00 | 84 | 1014.8 |
| 20260506044055 | 0 | 0.0 | 0.0 | 0.00 | 0.00 | 0.00 | |||
| 20260506043958 | 54 | 113 | 7.8 | 8.7 | 0.00 | 0.00 | 0.00 | 84 | 1014.7 |
| 20260506043554 | 0 | 0.0 | 0.0 | 0.00 | 0.00 | 0.00 | |||
| 20260506043458 | 54 | 113 | 7.0 | 9.6 | 0.00 | 0.00 | 0.00 | 84 | 1014.7 |
| 20260506043055 | 0 | 0.0 | 0.0 | 0.00 | 0.00 | 0.00 | |||
| 20260506042957 | 54 | 111 | 6.1 | 7.8 | 0.00 | 0.00 | 0.00 | 84 | 1014.7 |
| 20260506042555 | 0 | 0.0 | 0.0 | 0.00 | 0.00 | 0.00 | |||
| 20260506042458 | 55 | 107 | 6.1 | 7.8 | 0.00 | 0.00 | 0.00 | 84 | 1014.6 |
| 20260506041957 | 55 | 109 | 6.1 | 8.7 | 0.00 | 0.00 | 0.00 | 83 | 1014.6 |
| 20260506041553 | 0 | 0.0 | 0.0 | 0.00 | 0.00 | 0.00 | |||
| 20260506041457 | 55 | 109 | 6.1 | 10.4 | 0.00 | 0.00 | 0.00 | 83 | 1014.5 |
| 20260506041052 | 0 | 0.0 | 0.0 | 0.00 | 0.00 | 0.00 | |||
| 20260506040957 | 55 | 104 | 7.0 | 8.7 | 0.00 | 0.00 | 0.00 | 83 | 1014.6 |
| 20260506040552 | 0 | 0.0 | 0.0 | 0.00 | 0.00 | 0.00 | |||
| 20260506040457 | 55 | 112 | 6.1 | 7.8 | 0.00 | 0.00 | 0.00 | 83 | 1014.5 |
| 20260506040053 | 0 | 0.0 | 0.0 | 0.00 | 0.00 | 0.00 | |||
| 20260506035957 | 55 | 111 | 5.2 | 7.8 | 0.00 | 0.00 | 0.00 | 83 | 1014.4 |
| 20260506035552 | 0 | 0.0 | 0.0 | 0.00 | 0.00 | 0.00 | |||
| 20260506035457 | 55 | 115 | 6.1 | 7.0 | 0.00 | 0.00 | 0.00 | 83 | 1014.4 |
| 20260506035053 | 0 | 0.0 | 0.0 | 0.00 | 0.00 | 0.00 | |||
| 20260506034958 | 55 | 110 | 7.0 | 7.8 | 0.00 | 0.00 | 0.00 | 83 | 1014.5 |
| 20260506034553 | 0 | 0.0 | 0.0 | 0.00 | 0.00 | 0.00 | |||
| 20260506034458 | 55 | 116 | 4.3 | 6.1 | 0.00 | 0.00 | 0.00 | 82 | 1014.5 |
| 20260506034052 | 0 | 0.0 | 0.0 | 0.00 | 0.00 | 0.00 | |||
| 20260506033958 | 55 | 113 | 4.3 | 7.8 | 0.00 | 0.00 | 0.00 | 82 | 1014.4 |
| 20260506033457 | 55 | 110 | 7.0 | 7.8 | 0.00 | 0.00 | 0.00 | 82 | 1014.4 |
| 20260506033053 | 0 | 0.0 | 0.0 | 0.00 | 0.00 | 0.00 | |||
| 20260506032957 | 55 | 103 | 7.8 | 10.4 | 0.00 | 0.00 | 0.00 | 82 | 1014.4 |
| 20260506032553 | 0 | 0.0 | 0.0 | 0.00 | 0.00 | 0.00 | |||
| 20260506032457 | 55 | 96 | 7.0 | 11.3 | 0.00 | 0.00 | 0.00 | 82 | 1014.4 |
| 20260506031957 | 55 | 109 | 6.1 | 7.8 | 0.00 | 0.00 | 0.00 | 82 | 1014.5 |
| 20260506031550 | 0 | 0.0 | 0.0 | 0.00 | 0.00 | 0.00 | |||
| 20260506031457 | 55 | 103 | 7.8 | 11.3 | 0.00 | 0.00 | 0.00 | 81 | 1014.4 |
| 20260506031050 | 0 | 0.0 | 0.0 | 0.00 | 0.00 | 0.00 | |||
| 20260506030957 | 56 | 114 | 7.8 | 10.4 | 0.00 | 0.00 | 0.00 | 81 | 1014.3 |
| 20260506030457 | 56 | 101 | 7.8 | 10.4 | 0.00 | 0.00 | 0.00 | 81 | 1014.2 |
| 20260506030050 | 0 | 0.0 | 0.0 | 0.00 | 0.00 | 0.00 | |||
| 20260506025957 | 56 | 107 | 7.0 | 10.4 | 0.00 | 0.00 | 0.00 | 80 | 1014.1 |
| 20260506025457 | 56 | 109 | 7.0 | 7.8 | 0.00 | 0.00 | 0.00 | 80 | 1014.1 |
| 20260506025051 | 0 | 0.0 | 0.0 | 0.00 | 0.00 | 0.00 | |||
| 20260506024957 | 56 | 105 | 7.8 | 9.6 | 0.00 | 0.00 | 0.00 | 80 | 1014.1 |
| 20260506024457 | 57 | 110 | 6.1 | 7.8 | 0.00 | 0.00 | 0.00 | 79 | 1014.2 |
| 20260506024051 | 0 | 0.0 | 0.0 | 0.00 | 0.00 | 0.00 | |||
| 20260506023957 | 57 | 103 | 7.8 | 9.6 | 0.00 | 0.00 | 0.00 | 79 | 1014.0 |
| 20260506023552 | 0 | 0.0 | 0.0 | 0.00 | 0.00 | 0.00 | |||
| 20260506023500 | 57 | 110 | 7.0 | 8.7 | 0.00 | 0.00 | 0.00 | 79 | 1014.1 |
| 20260506023051 | 0 | 0.0 | 0.0 | 0.00 | 0.00 | 0.00 | |||
| 20260506022958 | 57 | 117 | 6.1 | 7.8 | 0.00 | 0.00 | 0.00 | 79 | 1014.1 |
| 20260506022553 | 0 | 0.0 | 0.0 | 0.00 | 0.00 | 0.00 | |||
| 20260506022457 | 57 | 107 | 7.0 | 7.8 | 0.00 | 0.00 | 0.00 | 79 | 1014.1 |
| 20260506022051 | 0 | 0.0 | 0.0 | 0.00 | 0.00 | 0.00 | |||
| 20260506021957 | 57 | 107 | 7.0 | 8.7 | 0.00 | 0.00 | 0.00 | 78 | 1014.2 |
| 20260506021549 | 0 | 0.0 | 0.0 | 0.00 | 0.00 | 0.00 | |||
| 20260506021457 | 57 | 115 | 6.1 | 7.8 | 0.00 | 0.00 | 0.00 | 78 | 1014.3 |
| 20260506021048 | 0 | 0.0 | 0.0 | 0.00 | 0.00 | 0.00 | |||
| 20260506020957 | 58 | 114 | 5.2 | 7.0 | 0.00 | 0.00 | 0.00 | 78 | 1014.3 |
| 20260506020549 | 0 | 0.0 | 0.0 | 0.00 | 0.00 | 0.00 | |||
| 20260506020458 | 58 | 112 | 6.1 | 7.8 | 0.00 | 0.00 | 0.00 | 78 | 1014.2 |
| 20260506020048 | 0 | 0.0 | 0.0 | 0.00 | 0.00 | 0.00 | |||
| 20260506015957 | 58 | 112 | 6.1 | 7.8 | 0.00 | 0.00 | 0.00 | 78 | 1014.2 |
| 20260506015459 | 58 | 119 | 5.2 | 7.0 | 0.00 | 0.00 | 0.00 | 78 | 1014.2 |
| 20260506015049 | 0 | 0.0 | 0.0 | 0.00 | 0.00 | 0.00 | |||
| 20260506014957 | 58 | 130 | 4.3 | 6.1 | 0.00 | 0.00 | 0.00 | 78 | 1014.3 |
| 20260506014549 | 0 | 0.0 | 0.0 | 0.00 | 0.00 | 0.00 | |||
| 20260506014457 | 58 | 126 | 5.2 | 7.0 | 0.00 | 0.00 | 0.00 | 77 | 1014.3 |
| 20260506014049 | 0 | 0.0 | 0.0 | 0.00 | 0.00 | 0.00 | |||
| 20260506013957 | 58 | 123 | 4.3 | 5.2 | 0.00 | 0.00 | 0.00 | 77 | 1014.3 |
| 20260506013458 | 58 | 113 | 5.2 | 8.7 | 0.00 | 0.00 | 0.00 | 78 | 1014.3 |
| 20260506013049 | 0 | 0.0 | 0.0 | 0.00 | 0.00 | 0.00 | |||
| 20260506012957 | 58 | 131 | 5.2 | 6.1 | 0.00 | 0.00 | 0.00 | 77 | 1014.3 |
| 20260506012546 | 0 | 0.0 | 0.0 | 0.00 | 0.00 | 0.00 | |||
| 20260506012459 | 58 | 130 | 4.3 | 5.2 | 0.00 | 0.00 | 0.00 | 78 | 1014.4 |
| 20260506012046 | 0 | 0.0 | 0.0 | 0.00 | 0.00 | 0.00 | |||
| 20260506011957 | 58 | 119 | 5.2 | 7.0 | 0.00 | 0.00 | 0.00 | 78 | 1014.4 |
| 20260506011546 | 0 | 0.0 | 0.0 | 0.00 | 0.00 | 0.00 | |||
| 20260506011458 | 58 | 137 | 3.5 | 5.2 | 0.00 | 0.00 | 0.00 | 78 | 1014.4 |
| 20260506010957 | 58 | 120 | 4.3 | 6.1 | 0.00 | 0.00 | 0.00 | 77 | 1014.4 |
| 20260506010458 | 58 | 121 | 5.2 | 6.1 | 0.00 | 0.00 | 0.00 | 77 | 1014.4 |
| 20260506010047 | 0 | 0.0 | 0.0 | 0.00 | 0.00 | 0.00 | |||
| 20260506005958 | 58 | 126 | 4.3 | 6.1 | 0.00 | 0.00 | 0.00 | 77 | 1014.4 |
| 20260506005547 | 0 | 0.0 | 0.0 | 0.00 | 0.00 | 0.00 | |||
| 20260506005457 | 59 | 121 | 5.2 | 6.1 | 0.00 | 0.00 | 0.00 | 76 | 1014.4 |
| 20260506004959 | 59 | 127 | 4.3 | 6.1 | 0.00 | 0.00 | 0.00 | 77 | 1014.4 |
| 20260506004547 | 0 | 0.0 | 0.0 | 0.00 | 0.00 | 0.00 | |||
| 20260506004457 | 59 | 118 | 5.2 | 7.0 | 0.00 | 0.00 | 0.00 | 75 | 1014.4 |
| 20260506004047 | 0 | 0.0 | 0.0 | 0.00 | 0.00 | 0.00 | |||
| 20260506003957 | 59 | 137 | 3.5 | 5.2 | 0.00 | 0.00 | 0.00 | 77 | 1014.4 |
| 20260506003547 | 0 | 0.0 | 0.0 | 0.00 | 0.00 | 0.00 | |||
| 20260506003457 | 59 | 128 | 5.2 | 7.0 | 0.00 | 0.00 | 0.00 | 75 | 1014.5 |
| 20260506003047 | 0 | 0.0 | 0.0 | 0.00 | 0.00 | 0.00 | |||
| 20260506002957 | 60 | 139 | 4.3 | 7.0 | 0.00 | 0.00 | 0.00 | 75 | 1014.5 |
| 20260506002544 | 0 | 0.0 | 0.0 | 0.00 | 0.00 | 0.00 | |||
| 20260506002457 | 59 | 134 | 3.5 | 4.3 | 0.00 | 0.00 | 0.00 | 76 | 1014.5 |
| 20260506002045 | 0 | 0.0 | 0.0 | 0.00 | 0.00 | 0.00 | |||
| 20260506001958 | 60 | 125 | 4.3 | 7.8 | 0.00 | 0.00 | 0.00 | 75 | 1014.5 |
| 20260506001541 | 0 | 0.0 | 0.0 | 0.00 | 0.00 | 0.00 | |||
| 20260506001457 | 60 | 138 | 5.2 | 7.0 | 0.00 | 0.00 | 0.00 | 74 | 1014.6 |
| 20260506001041 | 0 | 0.0 | 0.0 | 0.00 | 0.00 | 0.00 | |||
| 20260506000957 | 59 | 155 | 4.3 | 6.1 | 0.00 | 0.00 | 0.00 | 75 | 1014.7 |
| 20260506000457 | 59 | 149 | 4.3 | 7.0 | 0.00 | 0.00 | 0.00 | 76 | 1014.7 |
| 20260506000042 | 0 | 0.0 | 0.0 | 0.00 | 0.00 | 0.00 | |||
| 20260505235957 | 59 | 143 | 4.3 | 5.2 | 0.00 | 0.00 | 0.00 | 78 | 1014.7 |
| 20260505235457 | 59 | 136 | 4.3 | 6.1 | 0.00 | 0.00 | 0.00 | 76 | 1014.8 |
| 20260505235041 | 0 | 0.0 | 0.0 | 0.00 | 0.00 | 0.00 | |||
| 20260505234957 | 60 | 161 | 4.3 | 6.1 | 0.00 | 0.00 | 0.00 | 76 | 1014.8 |
| 20260505234541 | 0 | 0.0 | 0.0 | 0.00 | 0.00 | 0.00 | |||
| 20260505234457 | 60 | 133 | 4.3 | 5.2 | 0.00 | 0.00 | 0.00 | 75 | 1014.9 |
| 20260505234042 | 0 | 0.0 | 0.0 | 0.00 | 0.00 | 0.00 | |||
| 20260505233957 | 60 | 142 | 4.3 | 6.1 | 0.00 | 0.00 | 0.00 | 76 | 1014.8 |
| 20260505233541 | 0 | 0.0 | 0.0 | 0.00 | 0.00 | 0.00 | |||
| 20260505233458 | 59 | 158 | 5.2 | 7.8 | 0.00 | 0.00 | 0.00 | 76 | 1014.9 |
| 20260505233043 | 0 | 0.0 | 0.0 | 0.00 | 0.00 | 0.00 | |||
| 20260505232958 | 59 | 136 | 4.3 | 5.2 | 0.00 | 0.00 | 0.00 | 77 | 1015.0 |
| 20260505232458 | 59 | 144 | 3.5 | 5.2 | 0.00 | 0.00 | 0.00 | 78 | 1015.0 |
| 20260505232038 | 0 | 0.0 | 0.0 | 0.00 | 0.00 | 0.00 | |||
| 20260505231957 | 59 | 135 | 4.3 | 6.1 | 0.00 | 0.00 | 0.00 | 78 | 1015.0 |
| 20260505231536 | 0 | 0.0 | 0.0 | 0.00 | 0.00 | 0.00 | |||
| 20260505231458 | 59 | 147 | 5.2 | 7.8 | 0.00 | 0.00 | 0.00 | 78 | 1015.1 |
| 20260505231037 | 0 | 0.0 | 0.0 | 0.00 | 0.00 | 0.00 | |||
| 20260505230957 | 59 | 163 | 6.1 | 7.8 | 0.00 | 0.00 | 0.00 | 77 | 1015.1 |
| 20260505230536 | 0 | 0.0 | 0.0 | 0.00 | 0.00 | 0.00 | |||
| 20260505230457 | 59 | 148 | 5.2 | 7.8 | 0.00 | 0.00 | 0.00 | 78 | 1015.1 |
| 20260505230037 | 0 | 0.0 | 0.0 | 0.00 | 0.00 | 0.00 | |||
| 20260505225958 | 59 | 129 | 5.2 | 7.0 | 0.00 | 0.00 | 0.00 | 78 | 1015.1 |
| 20260505225536 | 0 | 0.0 | 0.0 | 0.00 | 0.00 | 0.00 | |||
| 20260505225458 | 59 | 125 | 4.3 | 6.1 | 0.00 | 0.00 | 0.00 | 78 | 1015.1 |
| 20260505225037 | 0 | 0.0 | 0.0 | 0.00 | 0.00 | 0.00 | |||
| 20260505224957 | 59 | 143 | 3.5 | 6.1 | 0.00 | 0.00 | 0.00 | 79 | 1015.1 |
| 20260505224537 | 0 | 0.0 | 0.0 | 0.00 | 0.00 | 0.00 | |||
| 20260505224458 | 59 | 131 | 4.3 | 6.1 | 0.00 | 0.00 | 0.00 | 77 | 1015.1 |
| 20260505224038 | 0 | 0.0 | 0.0 | 0.00 | 0.00 | 0.00 | |||
| 20260505223958 | 59 | 123 | 4.3 | 6.1 | 0.00 | 0.00 | 0.00 | 77 | 1015.2 |
| 20260505223537 | 0 | 0.0 | 0.0 | 0.00 | 0.00 | 0.00 | |||
| 20260505223457 | 58 | 128 | 4.3 | 6.1 | 0.00 | 0.00 | 0.00 | 79 | 1015.2 |
| 20260505223037 | 0 | 0.0 | 0.0 | 0.00 | 0.00 | 0.00 | |||
| 20260505222957 | 58 | 116 | 5.2 | 7.8 | 0.00 | 0.00 | 0.00 | 79 | 1015.2 |
| 20260505222457 | 58 | 146 | 5.2 | 7.8 | 0.00 | 0.00 | 0.00 | 80 | 1015.3 |
| 20260505222034 | 0 | 0.0 | 0.0 | 0.00 | 0.00 | 0.00 | |||
| 20260505221958 | 58 | 126 | 5.2 | 7.8 | 0.00 | 0.00 | 0.00 | 78 | 1015.3 |
| 20260505221532 | 0 | 0.0 | 0.0 | 0.00 | 0.00 | 0.00 | |||
| 20260505221457 | 58 | 131 | 4.3 | 7.0 | 0.00 | 0.00 | 0.00 | 79 | 1015.3 |
| 20260505221031 | 0 | 0.0 | 0.0 | 0.00 | 0.00 | 0.00 | |||
| 20260505220957 | 58 | 138 | 4.3 | 6.1 | 0.00 | 0.00 | 0.00 | 80 | 1015.4 |
| 20260505220531 | 0 | 0.0 | 0.0 | 0.00 | 0.00 | 0.00 | |||
| 20260505220504 | 58 | 127 | 4.3 | 6.1 | 0.00 | 0.00 | 0.00 | 79 | 1015.3 |
| 20260505215957 | 58 | 149 | 6.1 | 7.8 | 0.00 | 0.00 | 0.00 | 81 | 1015.4 |
| 20260505215532 | 0 | 0.0 | 0.0 | 0.00 | 0.00 | 0.00 | |||
| 20260505215457 | 58 | 144 | 5.2 | 7.0 | 0.00 | 0.00 | 0.00 | 80 | 1015.4 |
| 20260505214957 | 59 | 131 | 4.3 | 7.8 | 0.00 | 0.00 | 0.00 | 79 | 1015.4 |
| 20260505214532 | 0 | 0.0 | 0.0 | 0.00 | 0.00 | 0.00 | |||
| 20260505214457 | 58 | 124 | 3.5 | 6.1 | 0.00 | 0.00 | 0.00 | 80 | 1015.4 |
| 20260505214032 | 0 | 0.0 | 0.0 | 0.00 | 0.00 | 0.00 | |||
| 20260505213957 | 58 | 127 | 4.3 | 7.0 | 0.00 | 0.00 | 0.00 | 80 | 1015.5 |
| 20260505213537 | 0 | 0.0 | 0.0 | 0.00 | 0.00 | 0.00 | |||
| 20260505213458 | 57 | 130 | 4.3 | 6.1 | 0.00 | 0.00 | 0.00 | 81 | 1015.5 |
| 20260505213032 | 0 | 0.0 | 0.0 | 0.00 | 0.00 | 0.00 | |||
| 20260505212958 | 58 | 128 | 4.3 | 6.1 | 0.00 | 0.00 | 0.00 | 81 | 1015.5 |
| 20260505212457 | 57 | 147 | 5.2 | 7.8 | 0.00 | 0.00 | 0.00 | 82 | 1015.6 |
| 20260505212030 | 0 | 0.0 | 0.0 | 0.00 | 0.00 | 0.00 | |||
| 20260505211957 | 57 | 144 | 3.5 | 5.2 | 0.00 | 0.00 | 0.00 | 82 | 1015.6 |
| 20260505211528 | 0 | 0.0 | 0.0 | 0.00 | 0.00 | 0.00 | |||
| 20260505211457 | 56 | 116 | 4.3 | 7.0 | 0.00 | 0.00 | 0.00 | 82 | 1015.6 |
| 20260505211028 | 0 | 0.0 | 0.0 | 0.00 | 0.00 | 0.00 | |||
| 20260505210957 | 56 | 114 | 5.2 | 8.7 | 0.00 | 0.00 | 0.00 | 83 | 1015.5 |
| 20260505210527 | 0 | 0.0 | 0.0 | 0.00 | 0.00 | 0.00 | |||
| 20260505210458 | 57 | 131 | 3.5 | 5.2 | 0.00 | 0.00 | 0.00 | 83 | 1015.6 |
| 20260505210028 | 0 | 0.0 | 0.0 | 0.00 | 0.00 | 0.00 | |||
| 20260505205958 | 56 | 132 | 5.2 | 7.8 | 0.00 | 0.00 | 0.00 | 82 | 1015.6 |
| 20260505205528 | 0 | 0.0 | 0.0 | 0.00 | 0.00 | 0.00 | |||
| 20260505205457 | 56 | 149 | 4.3 | 7.0 | 0.00 | 0.00 | 0.00 | 84 | 1015.7 |
| 20260505205028 | 0 | 0.0 | 0.0 | 0.00 | 0.00 | 0.00 | |||
| 20260505204957 | 55 | 143 | 4.3 | 7.0 | 0.00 | 0.00 | 0.00 | 85 | 1015.7 |
| 20260505204529 | 0 | 0.0 | 0.0 | 0.00 | 0.00 | 0.00 | |||
| 20260505204457 | 55 | 128 | 3.5 | 5.2 | 0.00 | 0.00 | 0.00 | 86 | 1015.8 |
| 20260505204028 | 0 | 0.0 | 0.0 | 0.00 | 0.00 | 0.00 | |||
| 20260505203957 | 55 | 124 | 4.3 | 5.2 | 0.00 | 0.00 | 0.00 | 86 | 1015.9 |
| 20260505203528 | 0 | 0.0 | 0.0 | 0.00 | 0.00 | 0.00 | |||
| 20260505203457 | 55 | 130 | 4.3 | 7.0 | 0.00 | 0.00 | 0.00 | 87 | 1015.9 |
| 20260505203027 | 0 | 0.0 | 0.0 | 0.00 | 0.00 | 0.00 | |||
| 20260505202957 | 55 | 144 | 5.2 | 7.0 | 0.00 | 0.00 | 0.00 | 85 | 1015.8 |
| 20260505202458 | 55 | 130 | 3.5 | 5.2 | 0.00 | 0.00 | 0.00 | 87 | 1015.8 |
| 20260505201957 | 54 | 139 | 3.5 | 4.3 | 0.00 | 0.00 | 0.00 | 87 | 1015.8 |
| 20260505201524 | 0 | 0.0 | 0.0 | 0.00 | 0.00 | 0.00 | |||
| 20260505201458 | 54 | 131 | 5.2 | 7.8 | 0.00 | 0.00 | 0.00 | 87 | 1015.7 |
| 20260505201024 | 0 | 0.0 | 0.0 | 0.00 | 0.00 | 0.00 | |||
| 20260505200957 | 54 | 132 | 3.5 | 5.2 | 0.00 | 0.00 | 0.00 | 87 | 1015.7 |
| 20260505200524 | 0 | 0.0 | 0.0 | 0.00 | 0.00 | 0.00 | |||
| 20260505200458 | 54 | 142 | 3.5 | 5.2 | 0.00 | 0.00 | 0.00 | 88 | 1015.7 |
| 20260505200025 | 0 | 0.0 | 0.0 | 0.00 | 0.00 | 0.00 | |||
| 20260505195957 | 53 | 124 | 4.3 | 5.2 | 0.00 | 0.00 | 0.00 | 88 | 1015.7 |
| 20260505195525 | 0 | 0.0 | 0.0 | 0.00 | 0.00 | 0.00 | |||
| 20260505195458 | 53 | 128 | 4.3 | 7.0 | 0.00 | 0.00 | 0.00 | 89 | 1015.7 |
| 20260505194958 | 53 | 124 | 3.5 | 5.2 | 0.00 | 0.00 | 0.00 | 90 | 1015.7 |
| 20260505194525 | 0 | 0.0 | 0.0 | 0.00 | 0.00 | 0.00 | |||
| 20260505194457 | 53 | 125 | 3.5 | 5.2 | 0.00 | 0.00 | 0.00 | 90 | 1015.8 |
| 20260505193957 | 53 | 124 | 4.3 | 6.1 | 0.00 | 0.00 | 0.00 | 90 | 1015.8 |
| 20260505193525 | 0 | 0.0 | 0.0 | 0.00 | 0.00 | 0.00 | |||
| 20260505193459 | 52 | 125 | 3.5 | 3.5 | 0.00 | 0.00 | 0.00 | 92 | 1015.8 |
| 20260505193026 | 0 | 0.0 | 0.0 | 0.00 | 0.00 | 0.00 | |||
| 20260505193002 | 52 | 119 | 3.5 | 4.3 | 0.00 | 0.00 | 0.00 | 91 | 1015.8 |
| 20260505192458 | 52 | 123 | 4.3 | 6.1 | 0.00 | 0.00 | 0.00 | 92 | 1015.8 |
| 20260505192022 | 0 | 0.0 | 0.0 | 0.00 | 0.00 | 0.00 | |||
| 20260505191957 | 52 | 127 | 4.3 | 5.2 | 0.00 | 0.00 | 0.00 | 93 | 1015.8 |
| 20260505191519 | 0 | 0.0 | 0.0 | 0.00 | 0.00 | 0.00 | |||
| 20260505191458 | 52 | 123 | 4.3 | 6.1 | 0.00 | 0.00 | 0.00 | 93 | 1015.7 |
| 20260505190957 | 52 | 118 | 5.2 | 7.8 | 0.00 | 0.00 | 0.00 | 93 | 1015.7 |
| 20260505190519 | 0 | 0.0 | 0.0 | 0.00 | 0.00 | 0.00 | |||
| 20260505190458 | 52 | 126 | 3.5 | 5.2 | 0.00 | 0.00 | 0.00 | 93 | 1015.7 |
| 20260505185957 | 51 | 124 | 3.5 | 4.3 | 0.00 | 0.00 | 0.00 | 94 | 1015.7 |
| 20260505185518 | 0 | 0.0 | 0.0 | 0.00 | 0.00 | 0.00 | |||
| 20260505185458 | 52 | 129 | 3.5 | 5.2 | 0.00 | 0.00 | 0.00 | 94 | 1015.7 |
| 20260505185019 | 0 | 0.0 | 0.0 | 0.00 | 0.00 | 0.00 | |||
| 20260505184957 | 52 | 115 | 5.2 | 7.0 | 0.00 | 0.00 | 0.00 | 93 | 1015.7 |
| 20260505184518 | 0 | 0.0 | 0.0 | 0.00 | 0.00 | 0.00 | |||
| 20260505184458 | 51 | 131 | 3.5 | 6.1 | 0.00 | 0.00 | 0.00 | 94 | 1015.7 |
| 20260505184019 | 0 | 0.0 | 0.0 | 0.00 | 0.00 | 0.00 | |||
| 20260505184000 | 51 | 118 | 3.5 | 5.2 | 0.00 | 0.00 | 0.00 | 94 | 1015.7 |
| 20260505183518 | 0 | 0.0 | 0.0 | 0.00 | 0.00 | 0.00 | |||
| 20260505183457 | 51 | 106 | 6.1 | 7.0 | 0.00 | 0.00 | 0.00 | 94 | 1015.7 |
| 20260505183019 | 0 | 0.0 | 0.0 | 0.00 | 0.00 | 0.00 | |||
| 20260505182957 | 51 | 116 | 5.2 | 7.0 | 0.00 | 0.00 | 0.00 | 94 | 1015.7 |
| 20260505182517 | 0 | 0.0 | 0.0 | 0.00 | 0.00 | 0.00 | |||
| 20260505182458 | 51 | 124 | 4.3 | 5.2 | 0.00 | 0.00 | 0.00 | 94 | 1015.7 |
| 20260505182018 | 0 | 0.0 | 0.0 | 0.00 | 0.00 | 0.00 | |||
| 20260505181958 | 51 | 125 | 5.2 | 6.1 | 0.00 | 0.00 | 0.00 | 93 | 1015.6 |
| 20260505181518 | 0 | 0.0 | 0.0 | 0.00 | 0.00 | 0.00 | |||
| 20260505181457 | 51 | 129 | 3.5 | 5.2 | 0.00 | 0.00 | 0.00 | 94 | 1015.5 |
| 20260505181018 | 0 | 0.0 | 0.0 | 0.00 | 0.00 | 0.00 | |||
| 20260505180957 | 51 | 134 | 3.5 | 5.2 | 0.00 | 0.00 | 0.00 | 94 | 1015.5 |
| 20260505180518 | 0 | 0.0 | 0.0 | 0.00 | 0.00 | 0.00 | |||
| 20260505180501 | 51 | 122 | 4.3 | 7.0 | 0.00 | 0.00 | 0.00 | 94 | 1015.5 |
| 20260505180017 | 0 | 0.0 | 0.0 | 0.00 | 0.00 | 0.00 | |||
| 20260505175958 | 51 | 114 | 5.2 | 7.0 | 0.00 | 0.00 | 0.00 | 94 | 1015.5 |
| 20260505175518 | 0 | 0.0 | 0.0 | 0.00 | 0.00 | 0.00 | |||
| 20260505175457 | 51 | 125 | 3.5 | 4.3 | 0.00 | 0.00 | 0.00 | 95 | 1015.6 |
| 20260505175017 | 0 | 0.0 | 0.0 | 0.00 | 0.00 | 0.00 | |||
| 20260505174957 | 51 | 131 | 4.3 | 7.0 | 0.00 | 0.00 | 0.00 | 95 | 1015.6 |
| 20260505174518 | 0 | 0.0 | 0.0 | 0.00 | 0.00 | 0.00 | |||
| 20260505174458 | 51 | 129 | 4.3 | 5.2 | 0.00 | 0.00 | 0.00 | 95 | 1015.5 |
| 20260505174018 | 0 | 0.0 | 0.0 | 0.00 | 0.00 | 0.00 | |||
| 20260505173957 | 51 | 126 | 3.5 | 4.3 | 0.00 | 0.00 | 0.00 | 95 | 1015.5 |
| 20260505173518 | 0 | 0.0 | 0.0 | 0.00 | 0.00 | 0.00 | |||
| 20260505173457 | 51 | 119 | 3.5 | 6.1 | 0.00 | 0.00 | 0.00 | 95 | 1015.5 |
| 20260505173018 | 0 | 0.0 | 0.0 | 0.00 | 0.00 | 0.00 | |||
| 20260505172958 | 51 | 115 | 4.3 | 5.2 | 0.00 | 0.00 | 0.00 | 95 | 1015.4 |
| 20260505172518 | 0 | 0.0 | 0.0 | 0.00 | 0.00 | 0.00 | |||
| 20260505172457 | 50 | 109 | 6.1 | 7.0 | 0.00 | 0.00 | 0.00 | 95 | 1015.4 |
| 20260505172015 | 0 | 0.0 | 0.0 | 0.00 | 0.00 | 0.00 | |||
| 20260505171957 | 50 | 108 | 4.3 | 6.1 | 0.00 | 0.00 | 0.00 | 96 | 1015.2 |
| 20260505171517 | 0 | 0.0 | 0.0 | 0.00 | 0.00 | 0.00 | |||
| 20260505171458 | 50 | 114 | 5.2 | 6.1 | 0.00 | 0.00 | 0.00 | 96 | 1015.2 |
| 20260505170958 | 50 | 123 | 4.3 | 6.1 | 0.00 | 0.00 | 0.00 | 96 | 1015.3 |
| 20260505170516 | 0 | 0.0 | 0.0 | 0.00 | 0.00 | 0.00 | |||
| 20260505170457 | 50 | 112 | 4.3 | 6.1 | 0.00 | 0.00 | 0.00 | 96 | 1015.2 |
| 20260505170017 | 0 | 0.0 | 0.0 | 0.00 | 0.00 | 0.00 | |||
| 20260505165957 | 50 | 113 | 5.2 | 6.1 | 0.00 | 0.00 | 0.00 | 96 | 1015.2 |
| 20260505165458 | 50 | 118 | 4.3 | 5.2 | 0.00 | 0.00 | 0.00 | 96 | 1015.2 |
| 20260505165014 | 0 | 0.0 | 0.0 | 0.00 | 0.00 | 0.00 | |||
| 20260505164957 | 50 | 121 | 4.3 | 5.2 | 0.00 | 0.00 | 0.00 | 96 | 1015.2 |
| 20260505164514 | 0 | 0.0 | 0.0 | 0.00 | 0.00 | 0.00 | |||
| 20260505164459 | 50 | 131 | 3.5 | 4.3 | 0.00 | 0.00 | 0.00 | 97 | 1015.2 |
| 20260505164015 | 0 | 0.0 | 0.0 | 0.00 | 0.00 | 0.00 | |||
| 20260505163958 | 50 | 140 | 4.3 | 6.1 | 0.00 | 0.00 | 0.00 | 97 | 1015.2 |
| 20260505163515 | 0 | 0.0 | 0.0 | 0.00 | 0.00 | 0.00 | |||
| 20260505163458 | 49 | 131 | 2.6 | 3.5 | 0.00 | 0.00 | 0.00 | 97 | 1015.3 |
| 20260505163014 | 0 | 0.0 | 0.0 | 0.00 | 0.00 | 0.00 | |||
| 20260505162958 | 49 | 121 | 4.3 | 5.2 | 0.00 | 0.00 | 0.00 | 97 | 1015.3 |
| 20260505162510 | 0 | 0.0 | 0.0 | 0.00 | 0.00 | 0.00 | |||
| 20260505162457 | 49 | 126 | 4.3 | 5.2 | 0.00 | 0.00 | 0.00 | 97 | 1015.2 |
| 20260505162009 | 0 | 0.0 | 0.0 | 0.00 | 0.00 | 0.00 | |||
| 20260505161958 | 49 | 116 | 4.3 | 6.1 | 0.00 | 0.00 | 0.00 | 97 | 1015.2 |
| 20260505161505 | 0 | 0.0 | 0.0 | 0.00 | 0.00 | 0.00 | |||
| 20260505161459 | 49 | 126 | 3.5 | 4.3 | 0.00 | 0.00 | 0.00 | 97 | 1015.2 |
| 20260505161005 | 0 | 0.0 | 0.0 | 0.00 | 0.00 | 0.00 | |||
| 20260505160529 | 49 | 125 | 3.5 | 5.2 | 0.00 | 0.00 | 0.00 | 97 | 1015.2 |
| 20260505160504 | 0 | 0.0 | 0.0 | 0.00 | 0.00 | 0.00 | |||
| 20260505153006 | 0 | 0.0 | 0.0 | 0.00 | 0.00 | 0.00 | |||
| 20260505152958 | 49 | 116 | 5.2 | 6.1 | 0.00 | 0.00 | 0.00 | 97 | 1014.9 |
| 20260505152459 | 0 | 0.0 | 0.0 | 0.00 | 0.00 | 0.00 | |||
| 20260505152457 | 49 | 119 | 5.2 | 6.1 | 0.00 | 0.00 | 0.00 | 97 | 1014.9 |
| 20260505152000 | 49 | 113 | 6.1 | 7.0 | 0.00 | 0.00 | 0.00 | 97 | 1014.8 |
| 20260505151953 | 0 | 0.0 | 0.0 | 0.00 | 0.00 | 0.00 | |||
| 20260505151458 | 49 | 112 | 6.1 | 7.8 | 0.00 | 0.00 | 0.00 | 97 | 1014.7 |
| 20260505151447 | 0 | 0.0 | 0.0 | 0.00 | 0.00 | 0.00 | |||
| 20260505150958 | 49 | 114 | 6.1 | 7.0 | 0.00 | 0.00 | 0.00 | 96 | 1014.7 |
| 20260505150948 | 0 | 0.0 | 0.0 | 0.00 | 0.00 | 0.00 | |||
| 20260505150458 | 49 | 114 | 5.2 | 6.1 | 0.00 | 0.00 | 0.00 | 96 | 1014.7 |
| 20260505150447 | 0 | 0.0 | 0.0 | 0.00 | 0.00 | 0.00 | |||
| 20260505140458 | 49 | 112 | 7.0 | 8.7 | 0.00 | 0.00 | 0.00 | 94 | 1013.9 |
| 20260505140443 | 0 | 0.0 | 0.0 | 0.00 | 0.00 | 0.00 | |||
| 20260505124957 | 50 | 115 | 5.2 | 7.8 | 0.00 | 0.00 | 0.00 | 87 | 1013.2 |
| 20260505124942 | 0 | 0.0 | 0.0 | 0.00 | 0.00 | 0.00 | |||
| 20260505124457 | 50 | 127 | 6.1 | 7.8 | 0.00 | 0.00 | 0.00 | 87 | 1013.1 |
| 20260505123957 | 51 | 120 | 6.1 | 7.0 | 0.00 | 0.00 | 0.00 | 86 | 1013.1 |
| 20260505123941 | 0 | 0.0 | 0.0 | 0.00 | 0.00 | 0.00 | |||
| 20260505123457 | 51 | 114 | 6.1 | 7.8 | 0.00 | 0.00 | 0.00 | 86 | 1012.8 |
| 20260505123442 | 0 | 0.0 | 0.0 | 0.00 | 0.00 | 0.00 | |||
| 20260505122958 | 51 | 117 | 6.1 | 8.7 | 0.00 | 0.00 | 0.00 | 85 | 1012.8 |
| 20260505122457 | 52 | 120 | 6.1 | 7.8 | 0.00 | 0.00 | 0.00 | 84 | 1012.8 |
| 20260505122442 | 0 | 0.0 | 0.0 | 0.00 | 0.00 | 0.00 | |||
| 20260505121958 | 52 | 125 | 5.2 | 7.0 | 0.00 | 0.00 | 0.00 | 84 | 1012.7 |
| 20260505121942 | 0 | 0.0 | 0.0 | 0.00 | 0.00 | 0.00 | |||
| 20260505121457 | 52 | 124 | 5.2 | 7.0 | 0.00 | 0.00 | 0.00 | 83 | 1012.7 |
| 20260505121442 | 0 | 0.0 | 0.0 | 0.00 | 0.00 | 0.00 | |||
| 20260505120958 | 53 | 118 | 6.1 | 7.0 | 0.00 | 0.00 | 0.00 | 83 | 1012.6 |
| 20260505120942 | 0 | 0.0 | 0.0 | 0.00 | 0.00 | 0.00 | |||
| 20260505120457 | 53 | 110 | 6.1 | 7.8 | 0.00 | 0.00 | 0.00 | 83 | 1012.6 |
| 20260505120440 | 0 | 0.0 | 0.0 | 0.00 | 0.00 | 0.00 | |||
| 20260505115958 | 53 | 132 | 6.1 | 7.8 | 0.00 | 0.00 | 0.00 | 82 | 1012.6 |
| 20260505115939 | 0 | 0.0 | 0.0 | 0.00 | 0.00 | 0.00 | |||
| 20260505115458 | 53 | 111 | 7.8 | 9.6 | 0.00 | 0.00 | 0.00 | 82 | 1012.5 |
| 20260505115440 | 0 | 0.0 | 0.0 | 0.00 | 0.00 | 0.00 | |||
| 20260505114957 | 53 | 104 | 7.8 | 8.7 | 0.00 | 0.00 | 0.00 | 82 | 1012.5 |
| 20260505114940 | 0 | 0.0 | 0.0 | 0.00 | 0.00 | 0.00 | |||
| 20260505114459 | 53 | 111 | 7.8 | 8.7 | 0.00 | 0.00 | 0.00 | 81 | 1012.5 |
| 20260505113958 | 53 | 115 | 7.0 | 8.7 | 0.00 | 0.00 | 0.00 | 81 | 1012.4 |
| 20260505113939 | 0 | 0.0 | 0.0 | 0.00 | 0.00 | 0.00 | |||
| 20260505113457 | 53 | 99 | 7.8 | 8.7 | 0.00 | 0.00 | 0.00 | 81 | 1012.3 |
| 20260505113440 | 0 | 0.0 | 0.0 | 0.00 | 0.00 | 0.00 | |||
| 20260505112957 | 54 | 108 | 7.8 | 10.4 | 0.00 | 0.00 | 0.00 | 80 | 1012.3 |
| 20260505112940 | 0 | 0.0 | 0.0 | 0.00 | 0.00 | 0.00 | |||
| 20260505112457 | 54 | 107 | 7.8 | 9.6 | 0.00 | 0.00 | 0.00 | 80 | 1012.3 |
| 20260505111957 | 54 | 100 | 8.7 | 10.4 | 0.00 | 0.00 | 0.00 | 80 | 1012.2 |
| 20260505111459 | 54 | 114 | 7.0 | 8.7 | 0.00 | 0.00 | 0.00 | 80 | 1012.1 |
| 20260505111439 | 0 | 0.0 | 0.0 | 0.00 | 0.00 | 0.00 | |||
| 20260505111001 | 54 | 111 | 7.0 | 8.7 | 0.00 | 0.00 | 0.00 | 79 | 1012.0 |
| 20260505110940 | 0 | 0.0 | 0.0 | 0.00 | 0.00 | 0.00 | |||
| 20260505110457 | 55 | 106 | 7.8 | 8.7 | 0.00 | 0.00 | 0.00 | 79 | 1012.0 |
| 20260505110441 | 0 | 0.0 | 0.0 | 0.00 | 0.00 | 0.00 | |||
| 20260505101957 | 55 | 108 | 7.0 | 9.6 | 0.00 | 0.00 | 0.00 | 72 | 1011.9 |
| 20260505101938 | 0 | 0.0 | 0.0 | 0.00 | 0.00 | 0.00 | |||
| 20260505101458 | 55 | 112 | 7.0 | 8.7 | 0.00 | 0.00 | 0.00 | 72 | 1011.9 |
| 20260505101438 | 0 | 0.0 | 0.0 | 0.00 | 0.00 | 0.00 | |||
| 20260505100957 | 55 | 119 | 7.0 | 10.4 | 0.00 | 0.00 | 0.00 | 71 | 1011.8 |
| 20260505100459 | 55 | 99 | 8.7 | 11.3 | 0.00 | 0.00 | 0.00 | 71 | 1011.7 |
| 20260505100435 | 0 | 0.0 | 0.0 | 0.00 | 0.00 | 0.00 | |||
| 20260505095957 | 55 | 88 | 10.4 | 13.0 | 0.00 | 0.00 | 0.00 | 71 | 1011.6 |
| 20260505095932 | 0 | 0.0 | 0.0 | 0.00 | 0.00 | 0.00 | |||
| 20260505095457 | 55 | 111 | 7.0 | 9.6 | 0.00 | 0.00 | 0.00 | 72 | 1011.7 |
| 20260505095432 | 0 | 0.0 | 0.0 | 0.00 | 0.00 | 0.00 | |||
| 20260505094957 | 55 | 111 | 7.8 | 10.4 | 0.00 | 0.00 | 0.00 | 72 | 1011.6 |
| 20260505094933 | 0 | 0.0 | 0.0 | 0.00 | 0.00 | 0.00 | |||
| 20260505094457 | 55 | 95 | 8.7 | 11.3 | 0.00 | 0.00 | 0.00 | 71 | 1011.6 |
| 20260505093957 | 54 | 97 | 9.6 | 12.2 | 0.00 | 0.00 | 0.00 | 72 | 1011.5 |
| 20260505093457 | 53 | 134 | 5.2 | 7.0 | 0.00 | 0.00 | 0.00 | 76 | 1011.6 |
| 20260505092957 | 53 | 122 | 6.1 | 7.8 | 0.00 | 0.00 | 0.00 | 75 | 1011.6 |
| 20260505092932 | 0 | 0.0 | 0.0 | 0.00 | 0.00 | 0.00 | |||
| 20260505092457 | 53 | 106 | 8.7 | 10.4 | 0.00 | 0.00 | 0.00 | 74 | 1011.4 |
| 20260505092433 | 0 | 0.0 | 0.0 | 0.00 | 0.00 | 0.00 |